Regional Weather Roundup
Issued by NWS State College, PA

Home | Current Version | Previous Version | Graphics & Text | Print | Product List | Glossary On
Versions: 1 2 3 4 5 6 7 8 9 10 11 12 13 14 15 16 17 18 19 20 21 22 23 24 25 26 27 28 29 30 31 32 33 34 35 36 37 38 39 40 41 42 43 44 45 46 47 48 49 50
000
ASUS41 KCTP 030703
RWRCTP

REGIONAL WEATHER ROUNDUP
NATIONAL WEATHER SERVICE STATE COLLEGE PA
300 AM EDT MON AUG 03 2015

Note: "fair" indicates few or no clouds below 12,000 feet with no
significant weather and/or obstructions to visibility.

* = STATION THAT DOES NOT REPORT PRECIPITATION /E.G. RAIN...SNOW...ETC/
    THUNDER OR FOG.

PAZ002>004-007>009-013>016-020>023-029>032-030800-
WESTERN PENNSYLVANIA

CITY           SKY/WX    TMP DP  RH WIND       PRES   REMARKS
ERIE           CLOUDY    68  58  70 CALM      29.81S
MEADVILLE      CLOUDY    68  59  73 N8        29.86R
FRANKLIN*      PTCLDY    68  57  68 W7        29.87R
NEW CASTLE     FAIR      71  61  70 NW10      29.85R
BEAVER COUNTY  NOT AVBL
BUTLER*        CLEAR     70  57  64 W7        29.85S
PITTSBURGH INT PTCLDY    72  59  63 S9        29.83F
PITTSBURGH     CLEAR     68  56  65 S12       29.84F
INDIANA*       CLEAR     70  61  73 SW9       29.89F
LATROBE        NOT AVBL
WASHINGTON CO* NOT AVBL
$$

PAZ004>006-010>012-017>019-024>028-033>037-041-042-045-046-049>053-030800-
CENTRAL PENNSYLVANIA

CITY           SKY/WX    TMP DP  RH WIND       PRES   REMARKS
BRADFORD       PTCLDY    69  58  67 SW9       29.83F
DUBOIS         PTCLDY    70  58  65 SW9       29.83F
CLEARFIELD     PTCLDY    64  59  83 S6        29.85F
JOHNSTOWN      CLEAR     67  56  67 SW10      29.90F
ALTOONA        CLEAR     67  58  72 S6        29.88F
STATE COLLEGE  PTCLDY    67  61  81 SW8       29.83F
WILLIAMSPORT   MOCLDY    66  61  84 N3        29.80F
SELINSGROVE    CLEAR     63  61  93 CALM      29.83F
FT INDIANTOWN  CLEAR     62  60  94 N2        29.85F
CAPITAL CITY   CLEAR     70  60  70 W6        29.85S
HARRISBURG     PTCLDY    72  61  68 CALM      29.84F
YORK           CLEAR     72  60  66 S9        29.86S
$$

PAZ038>040-043-044-047-048-054-055-060>062-067>071-030800-
EASTERN PENNSYLVANIA

CITY           SKY/WX    TMP DP  RH WIND       PRES   REMARKS
SCRANTON       PTCLDY    68  58  70 CALM      29.83F
MOUNT POCONO   CLEAR     67  57  70 W6        29.89F
ALLENTOWN      CLEAR     64  60  87 N5        29.85F
QUAKERTOWN*    SUNNY     63  61  94 CALM      29.87F
READING        CLEAR     71  60  68 CALM      29.85R
LANCASTER      CLEAR     66  61  84 NE3       29.86S
COATESVILLE    SUNNY     68  63  83 CALM      29.89S
POTTSTOWN      CLEAR     65  62  90 CALM      29.87S
BLUE BELL      CLEAR     64  63  94 S5        29.85F
DOYLESTOWN     CLEAR     68  61  78 S3        29.86S
WILLOW GROVE   NOT AVBL
NORTH PHILA    CLEAR     75  61  61 SW7       29.87F
PHILADELPHIA   CLEAR     75  64  68 SW6       29.87F
$$


USA.gov is the U.S. government's official web portal to all federal, state and local government web resources and services.